User: anonymous   Login
Location: Unspecified
(0.0000°N, 0.0000°E)
Time: 12:57:56
(UTC+02:00)
Language:

Cosmos 1933 - Orbit

View from above orbital plane
View from above orbital plane
View from above satellite
View from above satellite

Ground track
Ground track

The orbit data is extracted from the following two-line orbital elements,

1 18958U 88020A   17149.89972426 +.00000071 +00000-0 +31665-5 0  9992
2 18958 082.5282 121.4980 0011292 353.6334 006.4746 15.03227309567611
Epoch (UTC): 29 May 2017 21:35:36
Eccentricity: 0.0011292
inclination: 82.5282°
perigee height: 549 km
apogee height: 565 km
right ascension of ascending node: 121.4980°
argument of perigee: 353.6334°
revolutions per day: 15.03227309
mean anomaly at epoch: 6.4746°
orbit number at epoch: 56761

The dashed part of the orbit path shows where the satellite is in the earth's shadow,  

DLR